Theta_e
304 309 312 315 317 321 324 325 324 325 325 324 324 325 324 323 323 322 322 321 319 318 317 315 314 311 309 306 302 300 296 294 291 287 286 286 286 286 288 288 287 286 285
297 297 298 300 304 309 315 318 320 323 326 325 325 324 324 324 323 321 321 320 318 316 313 312 311 305 306 302 300 297 296 292 288 284 284 284 285 287 287 286 286 286 284
297 298 298 298 298 300 302 307 312 314 317 319 321 322 323 323 322 321 321 320 315 316 313 310 310 304 301 298 297 295 293 290 288 285 283 284 284 285 284 284 283 283 285
298 298 298 297 298 299 299 301 303 305 306 310 311 316 317 318 317 317 316 315 313 313 311 308 307 303 303 298 295 292 290 288 285 285 282 282 283 284 283 281 280 281 282
297 297 297 297 297 296 296 298 301 302 301 302 303 306 307 307 305 304 304 308 307 306 302 303 304 302 298 299 295 288 288 286 285 284 282 282 282 282 282 280 280 280 280
296 296 295 294 293 293 293 294 295 295 295 296 296 297 299 298 298 299 301 303 300 298 298 298 297 292 292 293 292 290 289 286 284 283 282 282 283 282 282 281 280 278 276
294 293 292 290 290 290 290 290 290 292 292 292 292 292 293 295 295 296 295 296 295 296 294 290 287 288 289 289 290 290 289 291 289 285 284 283 283 283 283 282 281 280 278
289 289 289 289 288 288 288 289 290 291 290 291 291 291 290 291 294 295 293 292 290 290 289 288 288 287 288 288 287 286 286 286 286 285 285 284 285 284 284 283 282 281 280
289 289 288 287 283 288 288 290 290 289 288 287 287 288 287 288 292 294 290 288 287 286 286 287 288 287 289 289 286 285 284 284 288 288 288 288 288 287 285 282 279 277 276
287 287 287 286 284 286 288 287 286 285 285 285 286 286 286 287 291 292 289 286 285 284 285 285 286 286 290 290 286 284 283 282 283 283 284 286 287 286 287 284 282 279 277
285 285 283 281 281 286 286 284 285 285 284 285 284 284 285 286 287 292 290 286 285 284 284 283 284 288 289 288 287 284 283 283 284 283 283 283 282 283 283 283 283 282 278
280 280 278 280 284 285 286 285 285 285 285 284 284 283 284 284 287 290 289 288 287 285 284 284 285 288 289 288 285 287 287 285 283 281 281 281 281 281 281 281 281 282 282
276 281 282 283 285 285 285 285 284 285 284 283 283 282 282 283 285 289 289 288 287 284 284 285 287 288 288 287 286 286 284 283 282 281 280 281 281 281 280 277 277 277 277
281 281 282 283 284 284 284 284 285 284 283 283 283 283 282 282 283 284 285 285 285 285 286 285 286 286 287 286 285 286 285 284 282 282 281 281 280 278 277 277 276 275 274
281 280 282 282 284 283 282 283 283 283 285 285 285 284 283 282 284 286 286 284 284 285 284 284 284 283 283 283 283 284 284 284 283 283 282 280 279 278 277 276 275 273 273
279 278 276 280 280 281 281 281 286 287 288 288 289 286 285 286 287 288 288 287 287 286 282 281 281 282 281 282 282 282 282 283 283 283 282 281 279 278 277 275 275 274 273
275 273 272 273 275 275 271 273 277 279 284 287 288 288 287 287 288 288 289 288 288 286 279 281 281 281 281 282 282 282 281 282 282 282 281 280 280 279 276 275 274 273 273
270 271 271 270 270 269 269 269 272 275 275 277 283 286 287 287 288 288 289 288 285 285 284 282 282 283 281 283 282 282 281 281 280 280 280 279 278 277 275 274 273 273 272
273 272 269 268 266 267 267 267 267 270 273 275 279 281 280 286 287 288 288 285 284 283 284 284 284 284 283 283 283 282 282 281 280 279 278 277 276 275 274 273 273 272 271
277 280 279 279 279 279 278 279 279 279 280 280 280 280 276 278 281 282 282 283 283 281 279 281 284 284 283 283 282 281 281 279 277 276 276 275 274 273 272 272 271 270 269
268 275 276 274 275 275 275 274 275 275 275 274 273 272 280 279 279 279 279 279 279 279 279 279 279 279 281 281 280 277 277 276 275 274 273 273 272 271 271 272 271 270 270
266 265 265 263 262 263 259 259 259 259 258 259 259 262 274 262 261 264 267 268 269 271 273 274 274 272 272 273 273 272 271 270 269 269 271 270 270 270 270 269 269 268 268
263 263 262 261 262 261 261 259 260 260 259 257 259 259 257 258 258 259 260 260 262 264 266 265 266 267 265 266 267 267 268 266 267 269 269 268 267 267 267 267 267 266 266
261 262 261 260 260 260 258 257 257 258 257 255 255 255 256 256 257 258 258 257 259 261 261 261 259 260 261 260 260 262 265 266 265 266 268 267 266 267 266 265 263 263 264
258 259 259 259 259 257 257 257 256 254 254 256 255 256 255 256 255 254 255 255 256 257 257 257 256 256 254 254 255 256 256 262 263 264 263 264 263 262 262 262 261 260 261
261 261 260 259 256 255 258 258 254 255 255 256 255 254 255 256 256 255 255 255 256 256 256 256 256 257 257 256 255 259 261 265 262 263 262 260 260 259 260 259 259 259 259
Wind_Speed
6 6 7 8 7 7 11 12 12 12 13 13 13 15 15 16 16 16 16 16 17 16 14 14 16 13 10 9 6 6 5 5 5 2 2 3 6 7 5 4 5 4 3
5 5 7 6 6 7 7 7 7 10 11 12 13 14 15 16 16 17 18 16 16 17 14 14 15 8 12 10 9 11 10 5 5 6 3 3 4 6 6 5 5 4 4
4 5 6 7 6 7 7 7 6 6 8 9 12 14 15 15 16 16 17 16 16 18 16 17 16 13 10 9 11 11 8 5 4 6 5 3 3 4 3 3 5 4 4
5 6 7 6 6 6 6 6 6 6 6 6 7 10 10 9 11 12 12 12 13 14 14 15 14 16 16 15 12 11 7 8 5 7 4 4 3 3 2 3 2 2 1
6 7 7 5 5 5 5 5 6 8 6 5 6 6 6 5 4 6 6 9 10 10 8 11 13 16 20 18 11 11 11 7 7 7 4 4 4 4 5 3 2 2 1
6 7 5 4 4 4 4 4 5 5 5 5 6 6 6 4 6 11 9 9 9 9 11 10 5 5 2 11 8 9 11 9 6 5 3 4 5 3 3 3 3 2 2
5 5 4 3 4 4 4 4 4 5 4 5 6 6 7 6 6 8 10 5 7 8 7 6 4 4 6 7 10 14 11 11 11 7 10 5 6 8 7 4 3 3 3
1 3 1 1 3 3 3 4 5 3 4 5 5 5 6 6 8 9 8 4 2 1 3 5 7 8 9 16 14 10 5 5 2 2 6 6 5 8 7 4 4 3 1
3 3 1 1 1 2 3 5 5 4 4 3 3 5 5 6 8 8 5 4 4 3 2 3 5 9 16 18 10 10 5 4 9 9 11 12 13 15 10 6 3 3 1
2 3 3 2 4 3 4 4 2 1 2 2 3 3 5 6 6 6 6 4 5 4 4 4 7 6 11 12 8 11 8 5 5 5 4 7 8 10 15 7 6 4 3
2 2 2 1 2 2 1 1 1 1 0 2 3 3 3 4 4 6 6 1 3 5 6 5 4 13 15 12 12 8 5 7 7 3 3 2 3 3 3 4 6 6 5
2 4 4 3 2 2 1 0 0 1 2 1 1 2 3 3 2 3 1 1 4 2 5 5 7 20 20 17 11 13 15 12 4 4 3 4 5 6 4 4 6 6 5
4 4 4 3 4 2 1 2 1 0 0 0 0 1 1 1 1 5 4 5 5 2 3 5 13 16 15 11 11 13 10 5 5 5 5 6 6 4 4 3 1 1 2
5 5 3 4 4 3 2 2 2 1 0 1 1 1 1 1 1 2 2 3 8 6 8 5 5 4 5 5 6 9 6 6 7 7 6 4 3 3 4 4 4 3 3
5 5 4 2 2 3 3 2 1 2 2 1 2 2 3 3 3 7 7 3 2 5 6 4 3 3 4 3 4 5 5 6 7 6 5 4 4 4 5 4 3 3 6
5 4 3 2 3 2 3 3 10 7 4 5 4 2 1 3 6 12 9 7 10 14 3 3 4 4 6 6 6 7 7 6 7 6 6 6 7 7 6 4 4 6 7
6 4 2 3 3 2 1 2 1 4 7 11 7 3 1 2 7 10 9 7 10 11 2 3 4 4 6 7 7 5 6 7 7 7 8 8 8 7 6 6 7 7 8
6 6 3 3 2 3 3 3 2 1 2 0 4 5 4 2 4 8 9 8 4 8 4 4 5 5 5 6 6 6 6 5 6 7 7 7 6 6 5 7 7 8 8
4 3 3 3 2 2 2 1 1 1 1 1 0 2 2 2 2 4 7 4 5 5 5 5 5 5 5 5 6 6 7 7 7 6 6 6 6 5 7 6 6 8 7
4 6 5 3 5 3 3 2 3 3 3 3 4 4 2 2 1 3 3 3 5 4 3 4 5 5 5 6 6 6 6 5 5 5 6 5 5 6 6 6 7 7 8
4 4 6 4 4 3 3 3 3 2 2 3 3 4 10 4 3 3 4 4 5 5 5 4 4 3 3 4 4 3 4 4 4 4 4 4 5 5 6 6 6 7 7
4 4 4 4 4 4 3 3 3 3 3 3 2 4 10 4 4 3 4 4 3 4 4 4 3 2 2 4 3 2 1 2 2 2 3 3 4 5 5 5 5 5 5
3 5 4 3 3 5 4 3 3 3 2 2 2 2 3 2 2 2 2 2 3 3 4 3 3 3 3 3 3 3 2 3 3 3 4 4 4 5 5 6 6 5 5
3 4 4 3 2 3 3 3 2 3 3 2 2 3 3 3 3 3 3 3 3 4 2 2 2 3 3 3 3 3 4 3 2 3 5 3 4 5 4 3 2 4 4
3 3 3 3 3 3 3 3 3 3 2 2 2 2 2 2 2 2 3 3 3 3 4 4 3 4 4 6 5 6 5 7 5 4 2 2 3 4 3 2 3 2 2
3 3 3 2 3 2 1 1 0 0 0 1 1 1 1 1 2 2 2 2 3 3 4 3 5 7 8 6 6 7 6 7 5 6 3 2 2 2 3 3 5 2 3
Wind_Direction
228 225 225 231 231 229 233 237 233 232 227 222 219 220 220 220 218 220 225 227 225 226 223 216 217 205 205 197 188 170 167 153 135 158 111 144 156 160 168 173 174 180 184
240 239 245 251 249 248 246 246 241 236 234 229 221 227 228 225 220 220 223 219 221 226 221 222 221 200 198 186 184 188 189 168 127 130 115 139 158 169 171 171 188 165 189
248 251 262 261 257 255 258 263 263 260 246 235 231 234 233 229 226 224 226 223 213 225 217 216 219 202 197 194 190 186 176 144 139 140 137 149 138 149 163 174 194 185 208
239 247 256 255 254 260 268 266 263 274 281 272 253 249 234 222 226 227 226 224 222 225 217 221 209 200 205 200 184 187 169 144 135 129 98 128 127 146 163 167 181 205 205
241 246 247 253 254 266 273 283 283 280 286 301 302 282 259 233 213 220 222 224 222 220 209 208 214 217 206 205 179 168 157 155 146 138 122 131 146 157 192 170 144 128 268
238 257 265 262 267 264 278 296 295 292 305 312 301 284 284 265 240 209 201 215 216 215 215 218 250 321 124 136 144 164 147 138 159 144 141 146 152 135 144 163 130 119 233
243 265 272 285 291 295 301 314 302 296 311 305 306 304 291 282 289 268 245 248 224 223 208 175 132 139 129 97 119 132 142 175 169 157 154 164 153 163 139 141 180 148 180
264 234 218 258 279 295 296 301 298 303 298 296 288 287 293 296 287 254 222 223 223 184 158 151 157 155 161 147 143 127 128 68 39 86 117 131 114 145 133 169 155 133 57
331 316 297 212 240 276 287 299 295 313 304 303 319 312 283 283 281 251 148 115 102 94 110 160 168 153 150 146 121 119 130 102 121 120 116 133 133 143 144 129 156 128 206
346 302 301 237 178 196 252 259 239 197 266 300 305 319 304 295 268 200 163 134 131 115 98 93 109 106 137 142 140 144 157 145 153 116 131 147 144 158 182 178 160 188 147
308 328 39 10 176 194 212 181 233 212 274 334 340 352 334 316 309 213 194 96 145 144 136 125 118 136 144 145 144 139 158 141 168 121 136 146 111 164 194 176 191 194 184
80 63 46 41 26 79 145 170 103 140 131 26 10 3 11 351 337 207 223 304 175 145 157 147 153 160 162 163 151 155 155 142 149 154 180 189 203 213 199 198 205 213 223
83 87 90 69 66 84 119 106 58 161 131 342 128 67 2 8 74 178 163 147 127 74 99 137 149 157 161 162 159 174 162 152 173 190 204 222 213 195 178 166 176 201 208
116 107 98 106 121 111 113 125 146 170 206 164 186 189 165 128 74 60 106 121 119 111 129 135 152 139 167 133 160 185 193 198 199 198 213 215 153 165 196 183 193 170 198
103 86 72 44 55 92 89 92 87 303 243 217 237 186 170 188 196 180 167 162 138 126 106 107 138 132 166 180 198 207 213 211 212 212 208 192 192 190 213 174 184 162 214
96 94 107 123 68 54 69 8 48 52 349 289 284 180 313 294 207 200 200 181 160 149 107 148 175 192 205 205 203 217 220 221 224 217 212 213 209 209 211 186 186 207 221
124 130 118 105 110 134 80 141 91 347 24 30 12 25 181 274 212 217 219 205 181 169 108 194 211 208 218 226 230 220 221 223 217 217 223 217 216 213 195 203 207 208 225
114 117 122 121 121 141 161 177 157 139 128 14 353 16 18 17 195 205 209 193 191 208 204 193 213 223 215 227 228 232 235 225 218 224 224 220 217 216 206 215 214 219 226
93 94 98 104 107 120 117 137 150 189 110 132 118 356 334 310 269 240 228 218 213 227 232 229 228 224 229 233 231 228 227 222 217 220 219 218 215 210 226 219 216 214 215
93 102 95 84 107 85 89 57 36 30 46 40 47 26 354 48 311 284 274 261 257 243 219 241 248 246 240 242 243 234 235 228 216 220 223 214 205 205 224 219 213 212 210
113 111 103 95 97 94 89 88 72 68 65 40 28 349 25 22 23 17 7 6 10 1 358 353 338 297 262 237 233 222 231 230 220 221 228 219 211 215 221 227 221 219 225
94 100 95 104 97 76 75 68 73 80 73 71 340 345 35 53 40 28 13 20 4 359 353 349 353 1 347 343 337 326 295 258 233 226 229 223 219 232 227 227 228 224 221
86 102 97 89 104 113 85 80 90 100 103 85 50 32 14 13 35 26 349 341 341 344 347 350 343 340 343 342 347 332 293 260 246 232 257 238 225 229 225 231 221 218 215
66 82 100 101 94 93 93 92 99 105 124 101 55 26 23 355 352 349 346 334 340 334 335 347 345 344 334 332 327 318 307 299 281 253 253 243 228 225 218 217 195 209 217
73 88 80 92 91 89 81 53 42 29 32 36 25 12 339 344 340 341 326 331 329 345 330 327 328 332 328 321 314 312 302 308 301 285 266 243 215 204 206 181 188 188 195
65 73 81 89 83 83 88 104 97 1 106 269 279 284 264 264 259 266 281 304 311 312 318 314 319 326 323 313 308 304 301 302 275 264 234 222 200 202 194 196 205 184 195